Time,TemperatureF,DewpointF,PressureIn,WindDirection,WindDirectionDegrees,WindSpeedMPH,WindSpeedGustMPH,Humidity,HourlyPrecipIn,Conditions,Clouds,dailyrainin,SoftwareType,DateUTC
2013-06-19 17:59:00,57.9,42.8,29.18,NE,45,0.0,0.0,57,0.00,CLR,,0.00,WeatherDisplay:10.37,2013-06-19 23:59:00,
2013-06-19 18:00:00,57.9,42.8,29.19,WNW,292,1.2,1.2,57,0.00,CLR,,0.00,WeatherDisplay:10.37,2013-06-20 00:00:00,
2013-06-19 18:01:00,57.9,42.8,29.19,NNE,22,0.0,0.1,57,0.00,CLR,,0.00,WeatherDisplay:10.37,2013-06-20 00:01:00,
2013-06-19 18:03:00,57.9,42.8,29.19,SE,135,0.0,0.0,57,0.00,CLR,,0.00,WeatherDisplay:10.37,2013-06-20 00:03:00,
2013-06-19 18:08:00,57.9,42.8,29.19,North,0,0.0,0.0,57,0.00,CLR,,0.00,WeatherDisplay:10.37,2013-06-20 00:08:00,
2013-06-19 18:13:00,57.9,42.8,29.19,ENE,68,0.0,0.0,57,0.00,CLR,,0.00,WeatherDisplay:10.37,2013-06-20 00:13:00,
2013-06-19 18:18:00,57.9,42.8,29.19,ENE,68,0.0,0.0,57,0.00,CLR,,0.00,WeatherDisplay:10.37,2013-06-20 00:18:00,
2013-06-19 18:23:00,57.9,42.8,29.19,ENE,68,2.3,2.3,57,0.00,CLR,,0.00,WeatherDisplay:10.37,2013-06-20 00:23:00,
2013-06-19 18:28:00,57.9,42.8,29.19,NE,45,0.0,1.2,57,0.03,RA,,0.03,WeatherDisplay:10.37,2013-06-20 00:28:00,
2013-06-19 18:33:00,57.9,42.8,29.19,ENE,68,0.0,1.0,57,0.03,RA,,0.03,WeatherDisplay:10.37,2013-06-20 00:33:00,
2013-06-19 18:38:00,57.9,42.8,29.23,North,0,0.0,0.1,57,0.03,CLR,,0.03,WeatherDisplay:10.37,2013-06-20 00:38:00,
2013-06-19 18:43:00,57.9,42.8,29.23,North,0,0.0,0.0,57,0.03,CLR,,0.03,WeatherDisplay:10.37,2013-06-20 00:43:00,
2013-06-19 18:48:00,57.9,42.8,29.23,North,0,0.0,0.1,57,0.03,CLR,,0.03,WeatherDisplay:10.37,2013-06-20 00:48:00,
2013-06-19 18:53:00,57.9,42.8,29.23,NNW,338,4.6,4.6,57,0.03,CLR,,0.03,WeatherDisplay:10.37,2013-06-20 00:53:00,
2013-06-19 18:58:00,57.9,42.8,29.26,NNW,338,0.0,0.3,57,0.03,CLR,,0.03,WeatherDisplay:10.37,2013-06-20 00:58:00,
2013-06-19 19:03:00,57.9,42.8,29.26,NNW,338,0.0,0.0,57,0.03,CLR,,0.03,WeatherDisplay:10.37,2013-06-20 01:03:00,
2013-06-19 19:08:00,57.9,42.8,29.26,NNW,338,0.0,0.0,57,0.06,RA,,0.06,WeatherDisplay:10.37,2013-06-20 01:08:00,
2013-06-19 19:13:00,57.9,42.8,29.26,NW,315,0.0,0.0,57,0.06,RA,,0.06,WeatherDisplay:10.37,2013-06-20 01:13:00,
2013-06-19 19:18:00,57.9,42.8,29.24,NW,315,0.0,0.0,57,0.06,CLR,,0.06,WeatherDisplay:10.37,2013-06-20 01:18:00,
2013-06-19 19:23:00,57.9,42.8,29.24,NW,315,0.0,0.0,57,0.06,CLR,,0.06,WeatherDisplay:10.37,2013-06-20 01:23:00,
2013-06-19 19:28:00,57.9,42.8,29.24,NNW,338,0.0,0.0,57,0.03,CLR,,0.06,WeatherDisplay:10.37,2013-06-20 01:28:00,
2013-06-19 19:33:00,57.9,42.8,29.24,North,0,1.2,1.2,57,0.03,CLR,,0.06,WeatherDisplay:10.37,2013-06-20 01:33:00,
2013-06-19 19:38:00,57.9,42.8,29.24,East,90,0.0,0.1,57,0.03,CLR,,0.06,WeatherDisplay:10.37,2013-06-20 01:38:00,
2013-06-19 19:43:00,57.9,42.8,29.24,East,90,2.3,2.3,57,0.03,CLR,,0.06,WeatherDisplay:10.37,2013-06-20 01:43:00,
2013-06-19 19:48:00,57.9,42.8,29.24,East,90,0.0,0.8,57,0.03,CLR,,0.06,WeatherDisplay:10.37,2013-06-20 01:48:00,
2013-06-19 19:53:00,57.9,42.8,29.24,ENE,68,2.3,2.3,57,0.03,CLR,,0.06,WeatherDisplay:10.37,2013-06-20 01:53:00,
2013-06-19 19:58:00,57.9,42.8,29.24,East,90,2.3,2.3,57,0.03,CLR,,0.06,WeatherDisplay:10.37,2013-06-20 01:58:00,
2013-06-19 20:03:00,57.9,42.8,29.24,ENE,68,0.0,0.3,57,0.03,CLR,,0.06,WeatherDisplay:10.37,2013-06-20 02:03:00,
2013-06-19 20:08:00,57.9,42.8,29.24,SE,135,0.0,0.1,57,0.00,CLR,,0.06,WeatherDisplay:10.37,2013-06-20 02:08:00,
2013-06-19 20:13:00,57.9,42.8,29.24,East,90,0.0,0.0,57,0.00,CLR,,0.06,WeatherDisplay:10.37,2013-06-20 02:13:00,
2013-06-19 20:18:00,57.9,42.8,29.23,SSE,158,0.0,0.0,57,0.00,CLR,,0.06,WeatherDisplay:10.37,2013-06-20 02:18:00,
2013-06-19 20:23:00,57.9,42.8,29.23,SSW,202,0.0,0.0,57,0.00,CLR,,0.06,WeatherDisplay:10.37,2013-06-20 02:23:00,
2013-06-19 20:28:00,57.9,42.8,29.23,North,0,0.0,0.0,57,0.00,CLR,,0.06,WeatherDisplay:10.37,2013-06-20 02:28:00,
2013-06-19 20:33:00,57.9,42.8,29.23,North,0,0.0,0.0,57,0.00,CLR,,0.06,WeatherDisplay:10.37,2013-06-20 02:33:00,
2013-06-19 20:38:00,57.9,42.8,29.22,ENE,68,0.0,0.0,57,0.00,CLR,,0.06,WeatherDisplay:10.37,2013-06-20 02:38:00,
2013-06-19 20:43:00,57.9,42.8,29.22,NNE,22,0.0,0.0,57,0.00,CLR,,0.06,WeatherDisplay:10.37,2013-06-20 02:43:00,
2013-06-19 20:48:00,57.9,42.8,29.22,ENE,68,0.0,0.0,57,0.00,CLR,,0.06,WeatherDisplay:10.37,2013-06-20 02:48:00,
2013-06-19 20:53:00,57.9,42.8,29.22,ENE,68,0.0,0.0,57,0.00,CLR,,0.06,WeatherDisplay:10.37,2013-06-20 02:53:00,
2013-06-19 20:58:00,57.9,42.8,29.21,ESE,112,0.0,0.0,57,0.00,CLR,,0.06,WeatherDisplay:10.37,2013-06-20 02:58:00,
2013-06-19 21:03:00,57.9,42.8,29.21,East,90,0.0,0.0,57,0.00,CLR,,0.06,WeatherDisplay:10.37,2013-06-20 03:03:00,
2013-06-19 21:08:00,57.9,42.8,29.21,NE,45,0.0,0.0,57,0.00,CLR,,0.06,WeatherDisplay:10.37,2013-06-20 03:08:00,
2013-06-19 21:13:00,57.9,42.8,29.21,SE,135,0.0,0.0,57,0.00,CLR,,0.06,WeatherDisplay:10.37,2013-06-20 03:13:00,
2013-06-19 21:18:00,57.9,42.8,29.19,SSW,202,0.0,0.0,57,0.00,CLR,,0.06,WeatherDisplay:10.37,2013-06-20 03:18:00,
2013-06-19 21:23:00,57.9,42.8,29.19,SSE,158,0.0,0.0,57,0.00,CLR,,0.06,WeatherDisplay:10.37,2013-06-20 03:23:00,
2013-06-19 21:28:00,57.9,42.8,29.19,NNE,22,0.0,0.0,57,0.00,CLR,,0.06,WeatherDisplay:10.37,2013-06-20 03:28:00,
2013-06-19 21:33:00,57.9,42.8,29.19,ENE,68,0.0,0.0,57,0.00,CLR,,0.06,WeatherDisplay:10.37,2013-06-20 03:33:00,
2013-06-19 21:38:00,57.9,42.8,29.20,ENE,68,0.0,0.0,57,0.00,CLR,,0.06,WeatherDisplay:10.37,2013-06-20 03:38:00,
2013-06-19 21:43:00,57.9,42.8,29.20,East,90,0.0,0.0,57,0.00,CLR,,0.06,WeatherDisplay:10.37,2013-06-20 03:43:00,
2013-06-19 21:48:00,57.9,42.8,29.20,North,0,0.0,0.0,57,0.00,CLR,,0.06,WeatherDisplay:10.37,2013-06-20 03:48:00,
2013-06-19 21:53:00,57.9,42.8,29.20,ENE,68,0.0,0.0,57,0.00,CLR,,0.06,WeatherDisplay:10.37,2013-06-20 03:53:00,
2013-06-19 21:58:00,57.9,42.8,29.20,NNW,338,0.0,0.2,57,0.00,CLR,,0.06,WeatherDisplay:10.37,2013-06-20 03:58:00,
2013-06-19 22:01:00,57.9,42.8,29.20,North,0,0.0,0.2,57,0.00,CLR,,0.06,WeatherDisplay:10.37,2013-06-20 04:01:00,
2013-06-19 22:03:00,57.9,42.8,29.20,NE,45,0.0,0.2,57,0.00,CLR,,0.06,WeatherDisplay:10.37,2013-06-20 04:03:00,
2013-06-19 22:05:00,57.9,42.8,29.20,North,0,0.0,0.2,57,0.00,CLR,,0.06,WeatherDisplay:10.37,2013-06-20 04:05:00,
2013-06-19 22:10:00,57.9,42.8,29.20,NNE,22,0.0,0.0,57,0.00,CLR,,0.06,WeatherDisplay:10.37,2013-06-20 04:10:00,
2013-06-19 22:15:00,57.9,42.8,29.20,North,0,0.0,0.0,57,0.00,CLR,,0.06,WeatherDisplay:10.37,2013-06-20 04:15:00,
2013-06-19 22:20:00,57.9,42.8,29.20,NNW,338,0.0,0.0,57,0.00,CLR,,0.06,WeatherDisplay:10.37,2013-06-20 04:20:00,
2013-06-19 22:25:00,57.9,42.8,29.20,NE,45,0.0,0.0,57,0.00,CLR,,0.06,WeatherDisplay:10.37,2013-06-20 04:25:00,
2013-06-19 22:30:00,57.9,42.8,29.20,East,90,0.0,0.1,57,0.00,CLR,,0.06,WeatherDisplay:10.37,2013-06-20 04:30:00,
2013-06-19 22:35:00,57.9,42.8,29.20,ENE,68,0.0,0.3,57,0.00,CLR,,0.06,WeatherDisplay:10.37,2013-06-20 04:35:00,
2013-06-19 22:40:00,57.9,42.8,29.21,ENE,68,0.0,0.3,57,0.00,CLR,,0.06,WeatherDisplay:10.37,2013-06-20 04:40:00,
2013-06-19 22:45:00,57.9,42.8,29.21,ENE,68,0.0,0.0,57,0.03,RA,,0.08,WeatherDisplay:10.37,2013-06-20 04:45:00,
2013-06-19 22:50:00,57.9,42.8,29.21,NNE,22,0.0,0.0,57,0.03,RA,,0.08,WeatherDisplay:10.37,2013-06-20 04:50:00,
2013-06-19 22:55:00,57.9,42.8,29.21,North,0,0.0,0.0,57,0.03,CLR,,0.08,WeatherDisplay:10.37,2013-06-20 04:55:00,
2013-06-19 23:00:00,57.9,42.8,29.24,North,0,0.0,0.0,57,0.03,CLR,,0.08,WeatherDisplay:10.37,2013-06-20 05:00:00,
2013-06-19 23:05:00,57.9,42.8,29.24,North,0,0.0,0.0,57,0.03,CLR,,0.08,WeatherDisplay:10.37,2013-06-20 05:05:00,
2013-06-19 23:10:00,57.9,42.8,29.24,NNW,338,0.0,0.0,57,0.03,CLR,,0.08,WeatherDisplay:10.37,2013-06-20 05:10:00,
2013-06-19 23:15:00,57.9,42.8,29.24,NE,45,0.0,0.0,57,0.03,CLR,,0.08,WeatherDisplay:10.37,2013-06-20 05:15:00,
2013-06-19 23:20:00,57.9,42.8,29.22,NE,45,0.0,0.0,57,0.03,CLR,,0.08,WeatherDisplay:10.37,2013-06-20 05:20:00,
2013-06-19 23:25:00,57.9,42.8,29.22,NW,315,0.0,0.0,57,0.03,CLR,,0.08,WeatherDisplay:10.37,2013-06-20 05:25:00,
2013-06-19 23:30:00,57.9,42.8,29.22,NW,315,0.0,0.1,57,0.03,CLR,,0.08,WeatherDisplay:10.37,2013-06-20 05:30:00,
2013-06-19 23:35:00,57.9,42.8,29.22,NNW,338,0.0,0.1,57,0.03,CLR,,0.08,WeatherDisplay:10.37,2013-06-20 05:35:00,
2013-06-19 23:40:00,57.9,42.8,29.23,North,0,0.0,0.1,57,0.03,CLR,,0.08,WeatherDisplay:10.37,2013-06-20 05:40:00,
2013-06-19 23:45:00,57.9,42.8,29.23,North,0,0.0,0.1,57,0.00,CLR,,0.08,WeatherDisplay:10.37,2013-06-20 05:45:00,
2013-06-19 23:50:00,57.9,42.8,29.23,North,0,0.0,0.0,57,0.00,CLR,,0.08,WeatherDisplay:10.37,2013-06-20 05:50:00,
2013-06-19 23:55:00,57.9,42.8,29.23,North,0,0.0,0.0,57,0.00,CLR,,0.08,WeatherDisplay:10.37,2013-06-20 05:55:00,